This is the latest recevied weather packets stored in our database for station/object SP9KB-14. If no packets are shown the sender has not sent any weather packets the latest 10 day(s).
| Time | Temp. | Humidity | Pressure | Rain* | Wind** | Luminosity | Snow |
|---|---|---|---|---|---|---|---|
| 1777977079 | 25.56° C | 33% | 1032.4 hPa | 0 mm | - | - | - |
| 1777976778 | 25.56° C | 31% | 1032.4 hPa | 0 mm | - | - | - |
| 1777976478 | 25° C | 32% | 1032.3 hPa | 0 mm | - | - | - |
| 1777976177 | 25° C | 32% | 1032.7 hPa | 0 mm | - | - | - |
| 1777975877 | 25° C | 32% | 1032.5 hPa | 0 mm | - | - | - |
| 1777975576 | 25° C | 31% | 1032.5 hPa | 0 mm | - | - | - |
| 1777975276 | 25.56° C | 31% | 1032.4 hPa | 0 mm | - | - | - |
| 1777974975 | 25.56° C | 32% | 1032.5 hPa | 0 mm | - | - | - |
| 1777974675 | 25.56° C | 33% | 1032.4 hPa | 0 mm | - | - | - |
| 1777974374 | 25.56° C | 33% | 1032.7 hPa | 0 mm | - | - | - |
| 1777974074 | 25.56° C | 32% | 1032.6 hPa | 0 mm | - | - | - |
| 1777973773 | 25° C | 33% | 1032.6 hPa | 0 mm | - | - | - |
| 1777973473 | 25° C | 32% | 1032.8 hPa | 0 mm | - | - | - |
| 1777973172 | 25° C | 32% | 1032.7 hPa | 0 mm | - | - | - |
| 1777972871 | 25° C | 33% | 1032.9 hPa | 0 mm | - | - | - |
| 1777972571 | 25° C | 34% | 1032.8 hPa | 0 mm | - | - | - |
| 1777972271 | 25.56° C | 35% | 1032.8 hPa | 0 mm | - | - | - |
| 1777971970 | 24.44° C | 37% | 1033 hPa | 0 mm | - | - | - |
| 1777971669 | 24.44° C | 39% | 1033 hPa | 0 mm | - | - | - |
| 1777971369 | 24.44° C | 38% | 1033 hPa | 0 mm | - | - | - |
| 1777971068 | 25° C | 39% | 1033.1 hPa | 0 mm | - | - | - |
| 1777970768 | 24.44° C | 42% | 1033 hPa | 0 mm | - | - | - |
| 1777970467 | 23.89° C | 41% | 1033 hPa | 0 mm | - | - | - |
| 1777970167 | 23.89° C | 40% | 1033.1 hPa | 0 mm | - | - | - |
| 1777969866 | 23.89° C | 42% | 1033.2 hPa | 0 mm | - | - | - |
* Rain latest hour (hover to see other rain measurements)
** Current wind speed in m/s (hover to see current wind gust speed)